Location: Montreal
(45.5141°N, 73.5864°W)
Time: 02:40:36
(UTC-04:00)

ISS - Visible Passes

Search period start: 30 March 2017 00:00
Search period end: 09 April 2017 00:00
Orbit: 399 x 409 km, 51.6° (Epoch: 30 March)

Date Brightness Start Highest point End Pass type
(mag) Time Alt. Az. Time Alt. Az. Time Alt. Az.
30 Mar -3.0 21:01:30 10° W 21:04:41 49° NNW 21:06:02 28° NE visible
31 Mar -3.7 20:09:00 10° WSW 20:12:15 76° NNW 20:15:32 10° ENE visible
31 Mar -1.9 21:46:10 10° WNW 21:48:44 28° NNW 21:48:44 28° NNW visible
01 Apr -2.3 20:53:31 10° W 20:56:31 33° NNW 20:58:38 16° NE visible
01 Apr -0.5 22:30:41 10° NW 22:31:17 14° NW 22:31:17 14° NW visible
02 Apr -2.8 20:00:52 10° W 20:04:00 43° NNW 20:07:10 10° NE visible
02 Apr -2.0 21:38:08 10° WNW 21:41:00 26° N 21:41:05 26° N visible
03 Apr -2.0 20:45:31 10° WNW 20:48:23 27° N 20:50:48 13° NE visible
03 Apr -0.9 22:22:22 10° NW 22:23:27 18° NW 22:23:27 18° NW visible
04 Apr -2.2 19:52:49 10° WNW 19:55:47 31° NNW 19:58:46 10° NE visible
04 Apr -2.3 21:29:55 10° NW 21:32:51 29° N 21:33:06 28° NNE visible
05 Apr -2.1 20:37:22 10° WNW 20:40:13 27° N 20:42:44 12° ENE visible
05 Apr -1.3 22:13:56 10° NW 22:15:22 23° NW 22:15:22 23° NW visible
06 Apr -2.8 21:21:31 10° NW 21:24:36 37° NNE 21:24:58 36° NE visible
07 Apr -2.4 20:29:02 10° NW 20:31:59 30° N 20:34:33 12° ENE visible
07 Apr -1.8 22:05:27 10° WNW 22:07:12 29° WNW 22:07:12 29° WNW visible
08 Apr -3.6 21:13:00 10° WNW 21:16:13 59° NNE 21:16:47 49° ENE visible
